Time,TemperatureF,DewpointF,PressureIn,WindDirection,WindDirectionDegrees,WindSpeedMPH,WindSpeedGustMPH,Humidity,HourlyPrecipIn,Conditions,Clouds,dailyrainin,SoftwareType,DateUTC
2013-01-12 00:00:00,59.0,47.2,29.30,ESE,108,4.0,4.0,65,0.00,,,0.00,Wunderground v.1.15,2013-01-12 06:00:00,
2013-01-12 00:10:00,58.9,47.6,29.31,SSE,156,3.0,5.0,66,0.00,,,0.00,Wunderground v.1.15,2013-01-12 06:10:00,
2013-01-12 00:20:00,59.1,47.3,29.31,ESE,112,1.0,1.0,65,0.00,,,0.00,Wunderground v.1.15,2013-01-12 06:20:00,
2013-01-12 00:30:00,59.3,47.9,29.32,WSW,246,5.0,5.0,66,0.00,,,0.00,Wunderground v.1.15,2013-01-12 06:30:00,
2013-01-12 00:40:00,59.6,48.2,29.34,WNW,288,4.0,4.0,66,0.00,,,0.00,Wunderground v.1.15,2013-01-12 06:40:00,
2013-01-12 00:50:00,60.6,49.2,29.35,SW,228,5.0,5.0,66,0.00,,,0.00,Wunderground v.1.15,2013-01-12 06:50:00,
2013-01-12 01:05:00,60.5,49.5,29.34,West,263,1.0,1.0,67,0.00,,,0.00,Wunderground v.1.15,2013-01-12 07:05:00,
2013-01-12 01:15:00,60.3,49.7,29.34,West,262,0.0,0.0,68,0.00,,,0.00,Wunderground v.1.15,2013-01-12 07:15:00,
2013-01-12 01:25:00,60.0,49.4,29.35,SSE,166,0.0,2.0,68,0.00,,,0.00,Wunderground v.1.15,2013-01-12 07:25:00,
2013-01-12 01:35:00,59.7,49.9,29.36,SSW,203,2.0,2.0,70,0.00,,,0.00,Wunderground v.1.15,2013-01-12 07:35:00,
2013-01-12 01:45:00,59.7,49.9,29.36,SW,216,1.0,1.0,70,0.00,,,0.00,Wunderground v.1.15,2013-01-12 07:45:00,
2013-01-12 01:55:00,59.7,50.3,29.36,WSW,249,1.0,1.0,71,0.00,,,0.00,Wunderground v.1.15,2013-01-12 07:55:00,
2013-01-12 02:00:00,59.5,50.1,29.36,WSW,249,0.0,0.0,71,0.00,,,0.00,Wunderground v.1.15,2013-01-12 08:00:00,
2013-01-12 02:10:00,59.5,50.5,29.36,West,260,0.0,0.0,72,0.00,,,0.00,Wunderground v.1.15,2013-01-12 08:10:00,
2013-01-12 02:20:00,59.2,50.9,29.35,West,260,0.0,1.0,74,0.00,,,0.00,Wunderground v.1.15,2013-01-12 08:20:00,
2013-01-12 02:30:00,59.0,50.7,29.35,NW,305,2.0,3.0,74,0.00,,,0.00,Wunderground v.1.15,2013-01-12 08:30:00,
2013-01-12 02:35:00,59.0,48.1,29.36,NW,308,2.0,4.0,67,0.00,,,0.00,Wunderground v.1.15,2013-01-12 08:35:00,
2013-01-12 02:45:00,59.3,39.6,29.37,NNW,337,3.0,4.0,48,0.00,,,0.00,Wunderground v.1.15,2013-01-12 08:45:00,
2013-01-12 02:55:00,59.2,32.2,29.38,NW,311,4.0,7.0,36,0.00,,,0.00,Wunderground v.1.15,2013-01-12 08:55:00,
2013-01-12 03:00:00,59.2,30.8,29.36,North,355,4.0,4.0,34,0.00,,,0.00,Wunderground v.1.15,2013-01-12 09:00:00,
2013-01-12 03:10:00,58.7,28.9,29.36,NNE,18,2.0,2.0,32,0.00,,,0.00,Wunderground v.1.15,2013-01-12 09:10:00,
2013-01-12 03:20:00,58.6,28.8,29.36,NW,321,2.0,2.0,32,0.00,,,0.00,Wunderground v.1.15,2013-01-12 09:20:00,
2013-01-12 03:30:00,58.3,29.3,29.34,NW,307,5.0,5.0,33,0.00,,,0.00,Wunderground v.1.15,2013-01-12 09:30:00,
2013-01-12 03:35:00,57.9,29.7,29.38,WNW,300,6.0,6.0,34,0.00,,,0.00,Wunderground v.1.15,2013-01-12 09:35:00,
2013-01-12 03:40:00,57.7,28.8,29.36,NW,324,6.0,6.0,33,0.00,,,0.00,Wunderground v.1.15,2013-01-12 09:40:00,
2013-01-12 03:50:00,57.6,27.9,29.37,North,11,8.0,8.0,32,0.00,,,0.00,Wunderground v.1.15,2013-01-12 09:50:00,
2013-01-12 04:00:00,57.1,29.0,29.36,NNW,333,3.0,3.0,34,0.00,,,0.00,Wunderground v.1.15,2013-01-12 10:00:00,
2013-01-12 04:10:00,56.7,29.3,29.36,NW,316,4.0,4.0,35,0.00,,,0.00,Wunderground v.1.15,2013-01-12 10:10:00,
2013-01-12 04:15:00,56.5,29.1,29.36,NW,325,4.0,4.0,35,0.00,,,0.00,Wunderground v.1.15,2013-01-12 10:15:00,
2013-01-12 04:25:00,55.9,28.6,29.36,North,357,5.0,6.0,35,0.00,,,0.00,Wunderground v.1.15,2013-01-12 10:25:00,
2013-01-12 04:35:00,55.2,28.0,29.37,NW,325,6.0,11.0,35,0.00,,,0.00,Wunderground v.1.15,2013-01-12 10:35:00,
2013-01-12 04:45:00,54.7,28.9,29.36,NNW,327,6.0,9.0,37,0.00,,,0.00,Wunderground v.1.15,2013-01-12 10:45:00,
2013-01-12 04:55:00,54.2,29.1,29.35,NNE,18,6.0,6.0,38,0.00,,,0.00,Wunderground v.1.15,2013-01-12 10:55:00,
2013-01-12 05:00:00,53.9,28.8,29.35,NNW,337,6.0,12.0,38,0.00,,,0.00,Wunderground v.1.15,2013-01-12 11:00:00,
2013-01-12 05:10:00,53.5,29.1,29.35,NNE,32,7.0,12.0,39,0.00,,,0.00,Wunderground v.1.15,2013-01-12 11:10:00,
2013-01-12 05:20:00,53.0,28.7,29.35,NE,34,9.0,9.0,39,0.00,,,0.00,Wunderground v.1.15,2013-01-12 11:20:00,
2013-01-12 05:30:00,52.3,28.7,29.35,NNW,335,7.0,9.0,40,0.00,,,0.00,Wunderground v.1.15,2013-01-12 11:30:00,
2013-01-12 05:35:00,51.8,28.8,29.36,NE,36,7.0,12.0,41,0.00,,,0.00,Wunderground v.1.15,2013-01-12 11:35:00,
2013-01-12 05:45:00,51.2,30.0,29.39,North,356,7.0,8.0,44,0.00,,,0.00,Wunderground v.1.15,2013-01-12 11:45:00,
2013-01-12 05:55:00,50.4,30.9,29.40,NE,50,10.0,10.0,47,0.00,,,0.00,Wunderground v.1.15,2013-01-12 11:55:00,
2013-01-12 06:00:00,50.1,31.2,29.42,WNW,290,9.0,9.0,48,0.00,,,0.00,Wunderground v.1.15,2013-01-12 12:00:00,
2013-01-12 06:10:00,49.7,31.8,29.42,NNW,331,7.0,7.0,50,0.00,,,0.00,Wunderground v.1.15,2013-01-12 12:10:00,
2013-01-12 06:20:00,49.0,33.1,29.42,NNW,330,5.0,5.0,54,0.00,,,0.00,Wunderground v.1.15,2013-01-12 12:20:00,
2013-01-12 06:30:00,48.3,34.2,29.43,NNW,339,7.0,17.0,58,0.00,,,0.00,Wunderground v.1.15,2013-01-12 12:30:00,
2013-01-12 06:35:00,47.3,34.1,29.43,NNW,347,10.0,17.0,60,0.00,,,0.00,Wunderground v.1.15,2013-01-12 12:35:00,
2013-01-12 06:45:00,45.7,33.8,29.43,NNE,23,11.0,16.0,63,0.00,,,0.00,Wunderground v.1.15,2013-01-12 12:45:00,
2013-01-12 06:55:00,44.9,33.8,29.44,North,8,9.0,15.0,65,0.00,,,0.00,Wunderground v.1.15,2013-01-12 12:55:00,
2013-01-12 07:05:00,44.5,34.2,29.45,WNW,302,6.0,6.0,67,0.00,,,0.00,Wunderground v.1.15,2013-01-12 13:05:00,
2013-01-12 07:15:00,43.5,34.7,29.45,NE,44,7.0,9.0,71,0.00,,,0.00,Wunderground v.1.15,2013-01-12 13:15:00,
2013-01-12 07:20:00,42.9,34.5,29.46,ENE,61,8.0,11.0,72,0.00,,,0.00,Wunderground v.1.15,2013-01-12 13:20:00,
2013-01-12 07:30:00,42.3,33.9,29.47,NNW,331,9.0,12.0,72,0.00,,,0.00,Wunderground v.1.15,2013-01-12 13:30:00,
2013-01-12 07:35:00,41.9,33.9,29.46,NW,326,11.0,12.0,73,0.00,,,0.00,Wunderground v.1.15,2013-01-12 13:35:00,
2013-01-12 07:45:00,41.6,33.9,29.46,NNW,345,8.0,8.0,74,0.00,,,0.00,Wunderground v.1.15,2013-01-12 13:45:00,
2013-01-12 07:55:00,41.5,34.2,29.47,NNW,335,10.0,10.0,75,0.00,,,0.00,Wunderground v.1.15,2013-01-12 13:55:00,
2013-01-12 08:00:00,41.6,34.3,29.48,NW,323,8.0,14.0,75,0.00,,,0.00,Wunderground v.1.15,2013-01-12 14:00:00,
2013-01-12 08:10:00,41.4,33.7,29.47,SW,217,10.0,10.0,74,0.00,,,0.00,Wunderground v.1.15,2013-01-12 14:10:00,
2013-01-12 08:20:00,41.2,33.9,29.48,WNW,293,8.0,8.0,75,0.00,,,0.00,Wunderground v.1.15,2013-01-12 14:20:00,
2013-01-12 08:25:00,41.0,34.0,29.47,NW,311,7.0,13.0,76,0.00,,,0.00,Wunderground v.1.15,2013-01-12 14:25:00,
2013-01-12 08:35:00,40.4,34.1,29.48,NNW,329,8.0,10.0,78,0.00,,,0.00,Wunderground v.1.15,2013-01-12 14:35:00,
2013-01-12 08:40:00,40.3,33.7,29.48,WNW,294,8.0,8.0,77,0.00,,,0.00,Wunderground v.1.15,2013-01-12 14:40:00,
2013-01-12 08:50:00,39.9,33.3,29.49,North,354,10.0,14.0,77,0.00,,,0.00,Wunderground v.1.15,2013-01-12 14:50:00,
2013-01-12 09:05:00,39.2,33.2,29.49,WNW,300,10.0,10.0,79,0.00,,,0.00,Wunderground v.1.15,2013-01-12 15:05:00,
2013-01-12 09:15:00,38.4,33.4,29.49,NW,316,9.0,11.0,82,0.00,,,0.00,Wunderground v.1.15,2013-01-12 15:15:00,
2013-01-12 09:25:00,37.6,32.6,29.48,North,360,11.0,14.0,82,0.00,,,0.01,Wunderground v.1.15,2013-01-12 15:25:00,
2013-01-12 09:35:00,37.0,32.3,29.47,NW,309,10.0,10.0,83,0.00,,,0.01,Wunderground v.1.15,2013-01-12 15:35:00,
2013-01-12 09:45:00,37.2,31.9,29.47,NE,34,11.0,11.0,81,0.00,,,0.01,Wunderground v.1.15,2013-01-12 15:45:00,
2013-01-12 09:54:00,37.4,32.1,29.47,NNE,27,11.0,11.0,81,0.00,,,0.01,Wunderground v.1.15,2013-01-12 15:54:00,
2013-01-12 10:05:00,37.5,31.9,29.49,NW,310,8.0,11.0,80,0.00,,,0.01,Wunderground v.1.15,2013-01-12 16:05:00,
2013-01-12 10:15:00,37.7,32.1,29.48,ENE,78,6.0,6.0,80,0.00,,,0.01,Wunderground v.1.15,2013-01-12 16:15:00,
2013-01-12 10:25:00,37.8,32.2,29.49,NE,54,4.0,11.0,80,0.00,,,0.01,Wunderground v.1.15,2013-01-12 16:25:00,
2013-01-12 10:30:00,37.8,30.9,29.49,North,360,6.0,15.0,76,0.00,,,0.01,Wunderground v.1.15,2013-01-12 16:30:00,
2013-01-12 10:35:00,37.7,30.5,29.49,NNW,332,8.0,10.0,75,0.00,,,0.01,Wunderground v.1.15,2013-01-12 16:35:00,
2013-01-12 10:45:00,37.8,30.3,29.50,NNW,331,9.0,9.0,74,0.00,,,0.01,Wunderground v.1.15,2013-01-12 16:45:00,
2013-01-12 10:55:00,37.9,30.0,29.49,WNW,302,8.0,10.0,73,0.00,,,0.01,Wunderground v.1.15,2013-01-12 16:55:00,
2013-01-12 11:00:00,37.9,29.3,29.48,North,359,10.0,12.0,71,0.00,,,0.01,Wunderground v.1.15,2013-01-12 17:00:00,
2013-01-12 11:10:00,38.1,29.9,29.47,NNW,340,8.0,10.0,72,0.00,,,0.01,Wunderground v.1.15,2013-01-12 17:10:00,
2013-01-12 11:20:00,38.1,29.9,29.47,NE,53,9.0,9.0,72,0.00,,,0.01,Wunderground v.1.15,2013-01-12 17:20:00,
2013-01-12 11:30:00,38.0,29.4,29.45,NE,44,11.0,11.0,71,0.00,,,0.01,Wunderground v.1.15,2013-01-12 17:30:00,
2013-01-12 11:40:00,38.0,29.4,29.47,NW,312,10.0,10.0,71,0.00,,,0.01,Wunderground v.1.15,2013-01-12 17:40:00,
2013-01-12 11:50:00,37.9,29.3,29.47,NNE,30,8.0,11.0,71,0.00,,,0.01,Wunderground v.1.15,2013-01-12 17:50:00,
2013-01-12 12:00:00,37.6,28.7,29.44,NE,56,10.0,18.0,70,0.00,,,0.01,Wunderground v.1.15,2013-01-12 18:00:00,
2013-01-12 12:10:00,37.2,28.7,29.43,North,350,10.0,18.0,71,0.00,,,0.01,Wunderground v.1.15,2013-01-12 18:10:00,
2013-01-12 12:19:00,37.2,28.7,29.42,NNE,32,9.0,14.0,71,0.00,,,0.01,Wunderground v.1.15,2013-01-12 18:19:00,
2013-01-12 12:25:00,37.0,27.8,29.41,WNW,302,11.0,11.0,69,0.00,,,0.01,Wunderground v.1.15,2013-01-12 18:25:00,
2013-01-12 12:35:00,36.8,27.6,29.40,NNE,30,11.0,11.0,69,0.00,,,0.01,Wunderground v.1.15,2013-01-12 18:35:00,
2013-01-12 12:45:00,36.8,27.9,29.38,NNW,338,14.0,14.0,70,0.00,,,0.01,Wunderground v.1.15,2013-01-12 18:45:00,
2013-01-12 12:55:00,36.7,27.8,29.39,North,352,13.0,13.0,70,0.00,,,0.01,Wunderground v.1.15,2013-01-12 18:55:00,
2013-01-12 13:00:00,36.7,27.8,29.41,ENE,69,8.0,10.0,70,0.00,,,0.01,Wunderground v.1.15,2013-01-12 19:00:00,
2013-01-12 13:10:00,36.1,28.9,29.42,NNW,335,10.0,14.0,75,0.00,,,0.01,Wunderground v.1.15,2013-01-12 19:10:00,
2013-01-12 13:20:00,35.5,29.3,29.42,North,360,9.0,9.0,78,0.00,,,0.02,Wunderground v.1.15,2013-01-12 19:20:00,
2013-01-12 13:30:00,35.1,29.9,29.43,NNE,12,6.0,11.0,81,0.13,,,0.04,Wunderground v.1.15,2013-01-12 19:30:00,
2013-01-12 13:35:00,34.7,29.8,29.42,NW,317,7.0,11.0,82,0.17,,,0.06,Wunderground v.1.15,2013-01-12 19:35:00,
2013-01-12 13:40:00,34.3,30.0,29.42,NNE,30,9.0,9.0,84,0.16,,,0.07,Wunderground v.1.15,2013-01-12 19:40:00,
2013-01-12 13:50:00,33.8,30.1,29.41,NNW,329,8.0,14.0,86,0.13,,,0.09,Wunderground v.1.15,2013-01-12 19:50:00,
2013-01-12 14:00:00,33.6,29.9,29.39,NW,316,8.0,11.0,86,0.07,,,0.10,Wunderground v.1.15,2013-01-12 20:00:00,
2013-01-12 14:10:00,33.3,29.8,29.37,NE,42,10.0,14.0,87,0.05,,,0.11,Wunderground v.1.15,2013-01-12 20:10:00,
2013-01-12 14:20:00,33.3,29.8,29.40,NW,321,9.0,14.0,87,0.07,,,0.12,Wunderground v.1.15,2013-01-12 20:20:00,
2013-01-12 14:25:00,33.3,29.8,29.40,NNE,26,9.0,13.0,87,0.06,,,0.12,Wunderground v.1.15,2013-01-12 20:25:00,
2013-01-12 14:35:00,33.3,29.8,29.40,NE,43,9.0,9.0,87,0.00,,,0.12,Wunderground v.1.15,2013-01-12 20:35:00,
2013-01-12 14:45:00,33.3,29.8,29.40,NW,310,10.0,11.0,87,0.00,,,0.12,Wunderground v.1.15,2013-01-12 20:45:00,
2013-01-12 14:55:00,33.4,29.9,29.44,NW,305,8.0,8.0,87,0.00,,,0.12,Wunderground v.1.15,2013-01-12 20:55:00,
2013-01-12 15:00:00,33.3,30.1,29.43,WNW,294,8.0,8.0,88,0.00,,,0.13,Wunderground v.1.15,2013-01-12 21:00:00,
2013-01-12 15:10:00,32.7,29.3,29.44,NE,53,13.0,16.0,87,0.07,,,0.14,Wunderground v.1.15,2013-01-12 21:10:00,
2013-01-12 15:20:00,31.9,29.3,29.38,North,1,10.0,14.0,90,0.15,,,0.20,Wunderground v.1.15,2013-01-12 21:20:00,
2013-01-12 15:30:00,31.8,28.9,29.39,NNE,22,11.0,11.0,89,0.08,,,0.21,Wunderground v.1.15,2013-01-12 21:30:00,
2013-01-12 15:35:00,31.7,28.6,29.40,NNW,333,12.0,14.0,88,0.05,,,0.21,Wunderground v.1.15,2013-01-12 21:35:00,
2013-01-12 15:45:00,31.6,27.9,29.42,NNW,335,12.0,15.0,86,0.00,,,0.21,Wunderground v.1.15,2013-01-12 21:45:00,
2013-01-12 15:55:00,31.6,28.2,29.43,NW,319,11.0,13.0,87,0.00,,,0.21,Wunderground v.1.15,2013-01-12 21:55:00,
2013-01-12 16:00:00,31.7,28.3,29.43,NNW,343,10.0,10.0,87,0.00,,,0.21,Wunderground v.1.15,2013-01-12 22:00:00,
2013-01-12 16:10:00,31.4,28.3,29.44,NW,304,9.0,15.0,88,0.00,,,0.21,Wunderground v.1.15,2013-01-12 22:10:00,
2013-01-12 16:20:00,31.2,27.8,29.44,NW,322,8.0,9.0,87,0.00,,,0.21,Wunderground v.1.15,2013-01-12 22:20:00,
2013-01-12 16:30:00,30.9,27.5,29.43,NW,318,11.0,19.0,87,0.00,,,0.21,Wunderground v.1.15,2013-01-12 22:30:00,
2013-01-12 16:40:00,30.9,27.5,29.44,NW,310,9.0,14.0,87,0.00,,,0.21,Wunderground v.1.15,2013-01-12 22:40:00,
2013-01-12 16:50:00,30.8,27.4,29.44,North,3,11.0,16.0,87,0.00,,,0.21,Wunderground v.1.15,2013-01-12 22:50:00,
2013-01-12 17:00:00,30.7,27.3,29.47,NNW,330,9.0,9.0,87,0.00,,,0.21,Wunderground v.1.15,2013-01-12 23:00:00,
2013-01-12 17:10:00,30.6,27.2,29.46,NNW,335,11.0,11.0,87,0.00,,,0.21,Wunderground v.1.15,2013-01-12 23:10:00,
2013-01-12 17:20:00,30.7,27.6,29.45,NW,314,13.0,13.0,88,0.00,,,0.21,Wunderground v.1.15,2013-01-12 23:20:00,
2013-01-12 17:30:00,30.6,28.0,29.47,NNE,22,9.0,10.0,90,0.00,,,0.21,Wunderground v.1.15,2013-01-12 23:30:00,
2013-01-12 17:35:00,30.7,28.4,29.42,NE,47,10.0,10.0,91,0.00,,,0.21,Wunderground v.1.15,2013-01-12 23:35:00,
2013-01-12 17:45:00,30.7,28.7,29.47,West,281,9.0,11.0,92,0.00,,,0.21,Wunderground v.1.15,2013-01-12 23:45:00,
2013-01-12 17:50:00,30.8,28.8,29.45,ENE,63,7.0,7.0,92,0.00,,,0.21,Wunderground v.1.15,2013-01-12 23:50:00,
2013-01-12 17:55:00,30.9,29.1,29.44,NNW,336,7.0,13.0,93,0.00,,,0.21,Wunderground v.1.15,2013-01-12 23:55:00,
2013-01-12 18:00:00,31.0,29.5,29.47,NNW,333,7.0,7.0,94,0.00,,,0.21,Wunderground v.1.15,2013-01-13 00:00:00,
2013-01-12 18:10:00,31.0,29.5,29.47,NNE,22,4.0,4.0,94,0.00,,,0.21,Wunderground v.1.15,2013-01-13 00:10:00,
2013-01-12 18:20:00,30.9,29.4,29.50,West,281,4.0,4.0,94,0.00,,,0.21,Wunderground v.1.15,2013-01-13 00:20:00,
2013-01-12 18:30:00,30.7,28.9,29.49,ENE,60,5.0,5.0,93,0.00,,,0.21,Wunderground v.1.15,2013-01-13 00:30:00,
2013-01-12 18:35:00,30.5,28.7,29.49,NNE,32,5.0,5.0,93,0.00,,,0.21,Wunderground v.1.15,2013-01-13 00:35:00,
2013-01-12 18:45:00,30.2,28.4,29.49,NNW,332,7.0,7.0,93,0.00,,,0.21,Wunderground v.1.15,2013-01-13 00:45:00,
2013-01-12 18:55:00,30.0,28.0,29.50,WNW,297,6.0,9.0,92,0.00,,,0.21,Wunderground v.1.15,2013-01-13 00:55:00,
2013-01-12 19:05:00,29.9,28.1,29.50,WNW,288,4.0,4.0,93,0.00,,,0.21,Wunderground v.1.15,2013-01-13 01:05:00,
2013-01-12 19:10:00,29.8,28.0,29.51,NE,47,5.0,5.0,93,0.00,,,0.21,Wunderground v.1.15,2013-01-13 01:10:00,
2013-01-12 19:15:00,30.0,28.2,29.50,NNW,345,5.0,9.0,93,0.00,,,0.21,Wunderground v.1.15,2013-01-13 01:15:00,
2013-01-12 19:20:00,29.9,27.9,29.50,NNE,33,6.0,9.0,92,0.00,,,0.21,Wunderground v.1.15,2013-01-13 01:20:00,
2013-01-12 19:30:00,29.6,27.6,29.50,NNW,331,6.0,7.0,92,0.00,,,0.21,Wunderground v.1.15,2013-01-13 01:30:00,
2013-01-12 19:35:00,29.4,27.4,29.50,WNW,284,5.0,9.0,92,0.00,,,0.21,Wunderground v.1.15,2013-01-13 01:35:00,
2013-01-12 19:44:00,29.1,27.1,29.51,NNW,333,6.0,6.0,92,0.00,,,0.21,Wunderground v.1.15,2013-01-13 01:44:00,
2013-01-12 19:50:00,29.0,27.0,29.50,NE,47,4.0,6.0,92,0.00,,,0.21,Wunderground v.1.15,2013-01-13 01:50:00,
2013-01-12 20:00:00,28.6,26.3,29.52,NNE,28,7.0,7.0,91,0.00,,,0.21,Wunderground v.1.15,2013-01-13 02:00:00,
2013-01-12 20:10:00,28.4,26.4,29.51,NNW,339,6.0,10.0,92,0.00,,,0.21,Wunderground v.1.15,2013-01-13 02:10:00,
2013-01-12 20:20:00,28.2,25.9,29.52,North,360,7.0,7.0,91,0.00,,,0.21,Wunderground v.1.15,2013-01-13 02:20:00,
2013-01-12 20:30:00,28.1,25.8,29.52,NE,51,8.0,9.0,91,0.00,,,0.21,Wunderground v.1.15,2013-01-13 02:30:00,
2013-01-12 20:35:00,28.0,25.4,29.52,NNW,332,7.0,9.0,90,0.00,,,0.21,Wunderground v.1.15,2013-01-13 02:35:00,
2013-01-12 20:45:00,27.8,25.0,29.52,NNW,331,6.0,7.0,89,0.00,,,0.21,Wunderground v.1.15,2013-01-13 02:45:00,
2013-01-12 20:55:00,27.7,24.9,29.55,NW,317,6.0,6.0,89,0.00,,,0.21,Wunderground v.1.15,2013-01-13 02:55:00,
2013-01-12 21:00:00,27.6,24.8,29.54,NW,310,4.0,5.0,89,0.00,,,0.21,Wunderground v.1.15,2013-01-13 03:00:00,
2013-01-12 21:10:00,27.5,24.4,29.53,North,352,6.0,10.0,88,0.00,,,0.21,Wunderground v.1.15,2013-01-13 03:10:00,
2013-01-12 21:20:00,27.4,24.6,29.54,NNE,33,5.0,5.0,89,0.00,,,0.21,Wunderground v.1.15,2013-01-13 03:20:00,
2013-01-12 21:30:00,27.5,25.0,29.55,WNW,294,4.0,4.0,90,0.00,,,0.21,Wunderground v.1.15,2013-01-13 03:30:00,
2013-01-12 21:40:00,27.6,24.8,29.55,NNW,330,5.0,5.0,89,0.00,,,0.21,Wunderground v.1.15,2013-01-13 03:40:00,
2013-01-12 21:50:00,27.7,25.2,29.55,NW,318,4.0,6.0,90,0.00,,,0.21,Wunderground v.1.15,2013-01-13 03:50:00,
2013-01-12 21:55:00,27.7,25.2,29.55,NE,38,4.0,6.0,90,0.00,,,0.21,Wunderground v.1.15,2013-01-13 03:55:00,
2013-01-12 22:00:00,27.5,24.1,29.54,NE,44,5.0,5.0,87,0.00,,,0.21,Wunderground v.1.15,2013-01-13 04:00:00,
2013-01-12 22:10:00,27.2,23.8,29.54,NNW,340,5.0,5.0,87,0.00,,,0.21,Wunderground v.1.15,2013-01-13 04:10:00,
2013-01-12 22:20:00,27.0,23.4,29.54,NE,43,5.0,5.0,86,0.00,,,0.21,Wunderground v.1.15,2013-01-13 04:20:00,
2013-01-12 22:30:00,26.8,23.2,29.55,NNW,336,4.0,9.0,86,0.00,,,0.21,Wunderground v.1.15,2013-01-13 04:30:00,
2013-01-12 22:35:00,26.7,22.8,29.56,NNW,335,5.0,9.0,85,0.00,,,0.21,Wunderground v.1.15,2013-01-13 04:35:00,
2013-01-12 22:45:00,26.5,22.3,29.55,NNW,331,6.0,6.0,84,0.00,,,0.21,Wunderground v.1.15,2013-01-13 04:45:00,
2013-01-12 22:50:00,26.4,22.2,29.55,NW,324,7.0,8.0,84,0.00,,,0.21,Wunderground v.1.15,2013-01-13 04:50:00,
2013-01-12 22:55:00,26.3,22.1,29.57,East,98,6.0,8.0,84,0.00,,,0.21,Wunderground v.1.15,2013-01-13 04:55:00,
2013-01-12 23:05:00,26.3,22.1,29.57,NW,321,5.0,6.0,84,0.00,,,0.21,Wunderground v.1.15,2013-01-13 05:05:00,
2013-01-12 23:10:00,26.3,21.8,29.58,SW,226,5.0,6.0,83,0.00,,,0.21,Wunderground v.1.15,2013-01-13 05:10:00,
2013-01-12 23:15:00,26.4,21.9,29.58,NW,310,6.0,11.0,83,0.00,,,0.21,Wunderground v.1.15,2013-01-13 05:15:00,
2013-01-12 23:25:00,26.5,22.3,29.58,NW,310,5.0,5.0,84,0.00,,,0.21,Wunderground v.1.15,2013-01-13 05:25:00,
2013-01-12 23:34:00,26.4,22.5,29.59,NW,319,7.0,7.0,85,0.00,,,0.21,Wunderground v.1.15,2013-01-13 05:34:00,
2013-01-12 23:39:00,26.4,22.5,29.63,NW,315,6.0,7.0,85,0.00,,,0.21,Wunderground v.1.15,2013-01-13 05:39:00,
2013-01-12 23:45:00,26.3,22.7,29.62,NNW,329,5.0,5.0,86,0.00,,,0.21,Wunderground v.1.15,2013-01-13 05:45:00,
2013-01-12 23:55:00,26.1,22.2,29.61,NNW,345,5.0,10.0,85,0.00,,,0.21,Wunderground v.1.15,2013-01-13 05:55:00,